Location: Spring Creek
(38.2870°N, 100.2160°W)
Time: 02:49:38
(UTC+00:00)

Milstar 3 - Pass Details

Date: 08 May 2021
Orbit: 1089 x 5155 km, 28.3° (Epoch: 08 May)

Event Time Altitude Azimuth Distance (km) Brightness Sun altitude
Rises 04:18:05 0° 246° (WSW) 6,769 7.0 -25.7°
Reaches altitude 10° 04:23:33 10° 240° (WSW) 5,104 6.3 -26.3°
Enters shadow 04:34:33 41° 182° (S) 2,174 3.8 -27.5°
